Weather History for KPNE - April, 2013

Change the Weather History Date:

Monday, April 8, 2013

  Actual Average Record
Temperature  
Mean Temperature 62 °F -  
Max Temperature 75 °F 57 °F 80 °F (1999)
Min Temperature 48 °F 38 °F 30 °F (2007)
Degree Days  
Heating Degree Days 4    
Growing Degree Days 12 (Base 50)    
Moisture  
Dew Point 44 °F    
Average Humidity 52    
Maximum Humidity 80    
Minimum Humidity 33    
Precipitation  
Precipitation 0.00 in - - ()
Sea Level Pressure  
Sea Level Pressure 30.03 in    
Wind  
Wind Speed 5 mph (SSW)    
Max Wind Speed 9 mph    
Max Gust Speed -    
Visibility 10 miles    
Events      
Averages and records for this station are not official NWS values.
T = Trace of Precipitation, MM = Missing Value Source: NWS Daily Summary

Daily Weather History Graph

Daily Weather History Graph

Search for Another Location

Airport or City:

Trip Planner

Search our weather history database for the weather conditions in past years. The results will help you decide how hot, cold, wet, or windy it might be!

Date:

Astronomy

Apr. 08, 2013 Rise Set
Actual Time 6:32 AM EDT 7:31 PM EDT
Civil Twilight 6:04 AM EDT 7:59 PM EDT
Nautical Twilight 5:31 AM EDT 8:32 PM EDT
Astronomical Twilight 4:57 AM EDT 9:06 PM EDT
Moon 5:21 AM EDT (4/8) 6:03 PM EDT (4/8)
Length of Visible Light 13h 54m
Length of Day
12h 59m
Waning Crescent, 3% of the Moon is Illuminated
Apr 8
Waning Crescent
Apr 10
New
Apr 18
First Quarter
Apr 25
Full
May 2
Last Quarter

Hourly Weather History & Observations

Time (EDT) Temp. Dew Point Humidity Pressure Visibility Wind Dir Wind Speed Gust Speed Precip Events Conditions
12:54 AM 54.0 °F 43.0 °F 66% 30.03 in 10.0 mi SSW 5.8 mph - N/A   Partly Cloudy
1:54 AM 53.1 °F 43.0 °F 69% 30.02 in 10.0 mi SSW 6.9 mph - N/A   Clear
2:54 AM 53.1 °F 43.0 °F 69% 30.00 in 10.0 mi SW 5.8 mph - N/A   Clear
3:54 AM 52.0 °F 43.0 °F 71% 30.01 in 10.0 mi WSW 4.6 mph - N/A   Clear
4:54 AM 51.1 °F 43.0 °F 74% 30.02 in 10.0 mi SW 3.5 mph - N/A   Clear
5:54 AM 50.0 °F 43.0 °F 77% 30.03 in 10.0 mi SW 3.5 mph - N/A   Clear
6:54 AM 48.9 °F 43.0 °F 80% 30.05 in 10.0 mi Calm Calm - N/A   Clear
7:54 AM 54.0 °F 45.0 °F 72% 30.06 in 10.0 mi Calm Calm - N/A   Scattered Clouds
8:54 AM 57.9 °F 44.1 °F 60% 30.07 in 10.0 mi Calm Calm - N/A   Clear
9:54 AM 62.1 °F 43.0 °F 50% 30.08 in 10.0 mi West 3.5 mph - N/A   Scattered Clouds
10:54 AM 68.0 °F 43.0 °F 40% 30.09 in 10.0 mi North 5.8 mph - N/A   Clear
11:54 AM 70.0 °F 41.0 °F 35% 30.09 in 10.0 mi Calm Calm - N/A   Partly Cloudy
12:54 PM 72.0 °F 41.0 °F 33% 30.07 in 10.0 mi Calm Calm - N/A   Clear
1:54 PM 73.0 °F 43.0 °F 34% 30.05 in 10.0 mi South 8.1 mph - N/A   Clear
2:54 PM 73.9 °F 43.0 °F 33% 30.03 in 10.0 mi SW 6.9 mph - N/A   Clear
3:54 PM 75.9 °F 45.0 °F 33% 30.01 in 10.0 mi Variable 6.9 mph - N/A   Clear
4:54 PM 75.0 °F 44.1 °F 33% 29.99 in 10.0 mi SSW 6.9 mph - N/A   Clear
5:54 PM 75.0 °F 45.0 °F 34% 29.99 in 10.0 mi SW 9.2 mph - N/A   Clear
6:54 PM 73.9 °F 46.0 °F 37% 30.00 in 10.0 mi SSW 8.1 mph - N/A   Clear
7:54 PM 71.1 °F 46.0 °F 41% 30.00 in 10.0 mi South 5.8 mph - N/A   Clear
8:54 PM 68.0 °F 46.9 °F 47% 30.02 in 10.0 mi SSE 3.5 mph - N/A   Clear
9:54 PM 64.9 °F 46.0 °F 50% 30.02 in 10.0 mi South 5.8 mph - N/A   Clear
10:54 PM 64.9 °F 46.9 °F 52% 30.00 in 10.0 mi South 3.5 mph - N/A   Clear
11:54 PM 63.0 °F 48.9 °F 60% 29.99 in 10.0 mi Variable 3.5 mph - N/A   Clear